TimeEDT,TemperatureF,Dew PointF,Humidity,Sea Level PressureIn,VisibilityMPH,Wind Direction,Wind SpeedMPH,Gust SpeedMPH,PrecipitationIn,Events,Conditions,WindDirDegrees,DateUTC
12:58 AM,71.8,65.5,80,29.88,10.0,North,3.5,-,N/A,,Overcast,360,2013-06-18 04:58:00
1:58 AM,71.6,63.9,76,29.89,10.0,SW,6.9,-,N/A,,Overcast,220,2013-06-18 05:58:00
2:58 AM,69.6,63.1,80,29.89,10.0,South,4.6,-,N/A,,Overcast,190,2013-06-18 06:58:00
3:58 AM,70.2,62.8,77,29.87,10.0,West,4.6,-,N/A,,Overcast,270,2013-06-18 07:58:00
4:58 AM,70.3,62.8,77,29.87,10.0,West,2.3,-,N/A,,Overcast,270,2013-06-18 08:58:00
5:58 AM,70.2,62.2,76,29.88,10.0,SW,2.3,-,N/A,,Overcast,220,2013-06-18 09:58:00
6:43 AM,69.8,62.6,78,29.90,10.0,South,8.1,-,N/A,Thunderstorm,Overcast,170,2013-06-18 10:43:00
6:58 AM,69.6,62.4,78,29.89,10.0,South,11.5,-,N/A,Thunderstorm,Mostly Cloudy,180,2013-06-18 10:58:00
7:12 AM,69.8,62.6,78,29.91,10.0,South,11.5,-,N/A,,Mostly Cloudy,180,2013-06-18 11:12:00
7:58 AM,69.1,61.0,75,29.91,10.0,SSW,8.1,-,N/A,,Mostly Cloudy,200,2013-06-18 11:58:00
8:58 AM,69.6,63.0,79,29.94,10.0,SSW,11.5,-,N/A,,Mostly Cloudy,200,2013-06-18 12:58:00
9:58 AM,72.3,63.3,73,29.92,10.0,WSW,10.4,-,N/A,,Mostly Cloudy,250,2013-06-18 13:58:00
10:58 AM,75.2,62.8,65,29.91,10.0,WNW,5.8,-,N/A,,Partly Cloudy,300,2013-06-18 14:58:00
11:58 AM,78.4,63.5,60,29.91,10.0,WNW,8.1,-,N/A,,Scattered Clouds,300,2013-06-18 15:58:00
12:58 PM,80.4,61.0,51,29.90,10.0,North,6.9,-,N/A,,Scattered Clouds,350,2013-06-18 16:58:00
1:58 PM,81.9,58.8,45,29.90,10.0,Variable,4.6,-,N/A,,Scattered Clouds,0,2013-06-18 17:58:00
2:58 PM,81.9,61.7,50,29.89,10.0,NNW,8.1,-,N/A,,Scattered Clouds,340,2013-06-18 18:58:00
3:58 PM,82.8,60.6,47,29.89,10.0,North,11.5,-,N/A,,Partly Cloudy,360,2013-06-18 19:58:00
4:58 PM,81.9,59.4,46,29.89,10.0,North,10.4,-,N/A,,Partly Cloudy,350,2013-06-18 20:58:00
5:58 PM,80.8,57.6,45,29.89,10.0,North,15.0,19.6,N/A,,Partly Cloudy,10,2013-06-18 21:58:00
6:58 PM,79.5,56.5,45,29.89,10.0,North,10.4,25.3,N/A,,Partly Cloudy,360,2013-06-18 22:58:00
7:58 PM,77.0,57.7,51,29.93,10.0,NNE,15.0,-,N/A,,Mostly Cloudy,20,2013-06-18 23:58:00
8:58 PM,72.1,57.9,61,29.96,10.0,NE,15.0,-,N/A,,Mostly Cloudy,40,2013-06-19 00:58:00
9:58 PM,68.9,56.1,64,29.98,10.0,NE,13.8,-,N/A,,Scattered Clouds,50,2013-06-19 01:58:00
10:58 PM,66.6,55.8,68,30.00,10.0,NE,15.0,24.2,N/A,,Scattered Clouds,40,2013-06-19 02:58:00
11:58 PM,64.0,54.9,72,30.03,10.0,NE,9.2,-,N/A,,Scattered Clouds,50,2013-06-19 03:58:00